STARLINK-1048, 44753

Orbit data source: Space-Track

STARLINK-1048, 44753 is a payload satellite owned by SpaceX/Seattle (US) in LEO that was launched on Mon, 11 Nov 2019 UTC via an FALCON 9 launch vehicle from the Air Force Eastern Test Range (AFETR). Payload-class satellites include a variety of spacecraft equipped with specific instruments for various scientific and technological missions. These include communications satellites like Starlink; space stations such as the ISS; scientific satellites like the Hubble; Earth observation satellites from companies like Planet Labs, Umbra, and HawkEye 360; GPS; miniature CubeSats for education and research; and military/defense satellites.

Loading next visibility...
Identifier
44753, 2019-074AS
Orbit
LEO
Country
Flag of USUS
Related business
Manufacturer
SpaceX/Seattle
Mission
Partially operational Commercial Communications
Bus & Motor
STARLINK, Unknown motor
Mass
260 kg wet, ~248 kg dry
Launch date (UTC)
2019-11-11 (6 years ago)
Launch vehicle
FALCON 9
Launch site
Air Force Eastern Test Range (AFETR)
Object type
Payload
Rocket body
Debris
Shape & HBR
Box + 1 Pan, 10.1 m
Radar Cross Section
13.562 m², Large (>1 m²)

Expand to show TLE details & history
Last TLE update: 10 hours ago

TLE from 10 hours ago
0 STARLINK-1048
1 44753U 19074AS  26127.00002315  .00067073  00000-0  68657-3 0  9991
2 44753  53.0456 245.3253 0005022 309.6382  78.1237 15.64385618  5901
Epoch: 2026-05-07T00:00Z
TLE epoch observation values (Epoch: 2026-05-07T00:00:02.000Z)
Latitude
21.94998°
Longitude
38.01159°
Altitude
374.948 km
Speed
7.688 km/s
True Right ascension
17h 31m 29s
True Declination
21° 49' 27"
Sunlit
Object was in full shadow at epoch
Visualization orbit readout
Latitude
Unknown
Longitude
Unknown
Altitude
Unknown
Speed
Unknown
Apparent Right ascension
Unknown
Apparent Declination
Unknown
Sunlit
N/A
Visualization observer readout
Local Sidereal Time
17:54:33
Azimuth
Unknown
Elevation
Unknown
Doppler factor
Unknown
Orbital elements
Apogee altitude
378.677 km
Perigee altitude
371.894 km
Semi-major axis
6,753.422 km
Eccentricity
0.0005
Inclination
53.0456°
RAAN
245.3253°
Arg. of periapsis
309.6382°
True anomaly
78.18002°
Mean anomaly
78.1237°
Eccentric anomaly
78.15186°
Mean motion
3.91073 °/min
Orbital period
92.05 mins
BSTAR
0.00068657
Loading maneuver chart data...
Computing Atmospheric mass density...
Loading historical data...
Loading historical data...
Loading historical data...
Loading historical data...
Loading historical data...
Loading historical data...
Loading historical data...

Documentation

Showing up to 5 results
|